Flag for Brazil Weather past 2 weeks in Vitória, Espírito Santo, Brazil

Now
66 °F

Sunny.


Feels Like: 66 °F
Forecast: 70 / 89 °F
Wind: 1 mph from South

Location: Belo Horizonte Airport

Current Time: Mar 27, 2015 at 8:13:47 AM

Latest Report: Mar 27, 2015 at 7:00 AM


Visibility: 10 mi

Pressure: 30.09 "Hg

Humidity: 88%

Dew point: 63 °F

Location of VitóriaLocation

Historic Weather in Vitória — Graph

°F

Vitória temperature yesterday

Maximum temperature yesterday: 86 °F (at 3:00 PM)
Minimum temperature yesterday: 64 °F (at 5:00 AM)
Average temperature yesterday: 74 °F

Past Weeks' High & Low Weather Summary

 TemperatureHumidityPressure
High86 °F (Mar 13, 3:00 PM)100% (Mar 17, 11:00 AM)30.21 "Hg (Mar 17, 11:00 AM)
Low32 °F (Mar 24, 1:00 AM)25% (Mar 14, 3:00 AM)29.92 "Hg (Mar 20, 4:00 PM)
Average73 °F72%30.05 "Hg
* Reported Mar 12 7:00 AM — Mar 27 7:00 AM, Vitória, Weather by CustomWeather, © 2015

Note: Actual official high and low records may vary slightly from our data, if they occured in-between our weather recording intervals... More about our weather records

Advertising

Vitória weather history for previous 24 hours

 ConditionsComfort  
Time TempWeatherWind HumidityBarometerVisibility
7:00 AM
Fri, Mar 27
66 °FSunny.1 mph88%30.09 "Hg10 mi
6:00 AM66 °FClear.2 mph88%30.09 "Hg10 mi
5:00 AM68 °FClear.1 mph83%30.07 "Hg10 mi
4:00 AM68 °FClear.2 mph83%N/A10 mi
3:00 AM68 °FClear.1 mph83%30.07 "Hg10 mi
2:00 AM70 °FClear.1 mph78%30.07 "Hg10 mi
1:00 AM70 °FClear.1 mph78%30.07 "Hg10 mi
12:00 AM70 °FClear.3 mph78%30.07 "Hg10 mi
11:00 PM
Thu, Mar 26
72 °FClear.3 mph73%30.07 "Hg10 mi
10:00 PM75 °FClear.7 mph65%30.07 "Hg10 mi
9:00 PM75 °FPassing clouds.5 mph65%30.07 "HgN/A
8:00 PM75 °FPassing clouds.5 mph65%30.04 "HgN/A
7:00 PM77 °FClear.1 mph61%30.01 "Hg10 mi
6:00 PM81 °FPassing clouds.1 mph51%30.01 "HgN/A
5:00 PM82 °FScattered clouds.3 mph48%30.01 "HgN/A
4:00 PM84 °FScattered clouds.7 mph45%30.01 "HgN/A
3:00 PM86 °FScattered clouds.3 mph40%30.01 "HgN/A
2:00 PM84 °FScattered clouds.3 mph45%30.04 "HgN/A
1:00 PM82 °FScattered clouds.3 mph48%30.07 "HgN/A
12:00 PM79 °FScattered clouds.6 mph58%30.09 "HgN/A
11:00 AM77 °FScattered clouds.6 mph65%30.12 "HgN/A
10:00 AM75 °FPassing clouds.7 mph69%30.12 "HgN/A
9:00 AM73 °FSunny.7 mph69%30.12 "Hg10 mi
8:00 AM68 °FSunny.3 mph88%30.12 "Hg10 mi
Weather by CustomWeather, © 2015

See weather overviewHow to use our weather pages